#timestamp,LO_Frequency,Hit 
1501311615.4,286046966.7,N
1501311635.3,286046966.6,N
1501311655.1,286046966.8,N
1501311675.8,286046967.0,N
1501311695.7,286046966.4,N
1501311715.5,286046965.0,N
1501311735.3,286046965.7,N
1501311755.2,286046964.5,N
1501311775.9,286046966.1,N
1501311795.7,286046968.3,N
1501311815.6,286046969.7,N
1501311835.4,286046970.9,N
1501311855.2,286046973.1,N
1501311875.0,286046971.7,N
1501311875.9,286046971.7,N
1501311895.8,286046973.5,N
1501311915.6,286046971.8,N
1501311935.4,286046969.3,N
1501311955.3,286046964.5,N
1501311975.1,286046965.1,N
1501311995.8,286046964.7,N
1501312015.7,286046965.2,N
1501312035.5,286046962.0,N
1501312055.3,286046960.3,N
1501312075.2,286046962.5,N
1501312095.9,286046957.1,Y
1501312115.7,286046971.4,N
1501312135.6,286046973.1,N
1501312155.4,286046976.8,N
1501312175.2,286046978.5,N
1501312195.0,286046976.2,N
1501312196.0,286046976.2,N
1501312215.8,286046974.3,N
1501312235.6,286046974.4,N
1501312255.4,286046975.0,N
1501312275.3,286046971.0,N
1501312295.1,286046973.4,N
1501312315.8,286046972.5,N
1501312335.7,286046971.0,N
1501312355.5,286046973.0,N
1501312375.3,286046973.7,N
1501312395.2,286046971.1,N
1501312415.9,286046969.4,N
1501312435.7,286046971.8,N
1501312455.5,286046971.2,N
1501312475.4,286046972.9,N
1501312495.2,286046973.5,N
1501312515.0,286046973.3,N
1501312515.9,286046973.3,N
1501312535.8,286046971.0,N
1501312555.6,286046970.9,N
1501312575.4,286046971.5,N
1501312595.3,286046970.6,N
1501312615.1,286046970.3,N
1501312616.0,286046970.3,N
1501312635.8,286046966.9,N
1501312655.7,286046966.7,N
1501312675.5,286046966.2,N
1501312695.3,286046968.3,N
1501312715.2,286046970.6,N
1501312735.9,286046969.6,N
1501312755.7,286046967.7,N
1501312775.5,286046969.8,N
1501312795.4,286046970.6,N
1501312815.2,286046969.4,N
1501312835.0,286046969.3,N
1501312835.9,286046969.3,N
1501312855.8,286046969.6,N
1501312875.6,286046972.1,N
1501312895.4,286046973.8,N
1501312915.3,286046973.8,N
1501312935.1,286046973.7,N
1501312936.0,286046973.7,N
1501312955.8,286046973.5,N
1501312975.7,286046973.2,N
1501312995.5,286046973.8,N
1501313015.3,286046972.7,N
1501313035.1,286046972.7,N
1501313055.9,286046973.2,N
1501313075.7,286046973.8,N
1501313095.5,286046969.6,N
1501313115.4,286046970.5,N
1501313135.2,286046968.7,N
1501313155.0,286046966.7,Y
1501313156.0,286046966.7,Y
1501313175.8,286047005.2,N
1501313195.6,286047004.1,N
1501313215.4,286047003.7,N
1501313235.3,286047004.0,N
1501313255.1,286047003.5,N
1501313275.8,286047002.0,N
1501313295.7,286047000.1,N
1501313315.5,286046998.7,N
1501313335.3,286046998.3,N
1501313355.2,286047001.6,N
1501313375.9,286047002.0,N
1501313395.7,286047000.1,N
1501313415.6,286047004.4,N
1501313435.4,286047002.5,N
1501313455.2,286046999.8,N
1501313475.0,286047000.6,N
1501313476.0,286047000.6,N
1501313495.8,286047001.2,N
1501313515.6,286046999.2,N
1501313535.4,286047001.5,N
1501313555.3,286047001.5,N
1501313575.1,286047003.9,N
1501313595.8,286047005.5,N
1501313615.7,286047005.0,N
1501313635.5,286047005.1,N
1501313655.3,286047003.2,N
1501313675.2,286047003.7,N
1501313695.9,286047004.4,N
1501313715.7,286047004.1,N
1501313735.6,286047000.3,N
1501313755.4,286046996.6,N
1501313775.2,286046994.9,N
1501313795.0,286046997.0,N
1501313795.9,286046997.0,N
1501313815.8,286046993.3,N
1501313835.6,286046994.7,N
1501313855.4,286046993.5,N
1501313875.3,286046993.7,N
1501313895.1,286046994.2,N
1501313896.0,286046994.2,N
1501313915.8,286046996.4,N
1501313935.7,286046993.3,N
1501313955.5,286046995.7,N
1501313975.3,286046997.3,N
1501313995.2,286046996.8,N
1501314015.9,286046997.7,N
1501314035.7,286046995.2,N
1501314055.5,286046995.9,N
1501314075.4,286046996.2,N
1501314095.2,286046994.1,N
1501314115.0,286046992.4,N
1501314115.9,286046992.4,N
1501314135.8,286046992.3,N
1501314155.6,286046992.8,N
1501314175.4,286046989.5,N
1501314195.3,286046985.9,N
1501314215.1,286046990.0,N
1501314216.0,286046990.0,N
1501314235.8,286046989.6,N
1501314255.7,286046988.7,N
1501314275.5,286046990.9,N
1501314295.3,286046989.6,N
1501314315.2,286046986.9,N
1501314335.9,286046987.8,N
1501314355.7,286046985.5,N
1501314375.5,286046987.9,N
1501314395.4,286046988.4,N
1501314415.2,286046985.5,N
1501314435.0,286046983.8,N
1501314435.9,286046983.8,N
1501314455.8,286046982.4,N
1501314475.6,286046982.1,N
1501314495.4,286046985.6,N
1501314515.3,286046983.8,N
1501314535.1,286046984.4,N
1501314536.0,286046984.4,N
1501314555.8,286046986.7,N
1501314575.7,286046984.4,N
1501314595.5,286046984.7,N
1501314615.3,286046983.9,N
1501314635.1,286046983.5,N
1501314655.9,286046984.3,N
1501314675.7,286046985.0,N
1501314695.5,286046984.8,N
1501314715.4,286046985.1,N
1501314735.2,286046984.3,N
1501314755.0,286046986.4,N
1501314755.9,286046986.4,N
1501314775.8,286046986.7,N
1501314795.6,286046985.2,N
1501314815.4,286046982.3,N
1501314835.3,286046985.1,N
1501314855.1,286046986.4,N
1501314856.0,286046986.4,N
1501314875.8,286046986.2,N
1501314895.6,286046984.9,N
1501314915.5,286046983.9,N
1501314935.3,286046988.0,N
1501314955.1,286046984.8,N
1501314975.9,286046982.1,N
1501314995.7,286046984.9,N
1501315015.5,286046984.9,N
1501315035.4,286046986.3,N
1501315055.2,286046985.3,N
1501315075.0,286046985.9,N
1501315075.9,286046985.9,N
1501315095.8,286046986.5,N
1501315115.6,286046988.3,N
1501315135.4,286046988.2,N
1501315155.3,286046986.7,N
1501315175.1,286046983.9,N
1501315176.0,286046983.9,N
1501315195.8,286046984.4,N
